Time,TemperatureF,DewpointF,PressureIn,WindDirection,WindDirectionDegrees,WindSpeedMPH,WindSpeedGustMPH,Humidity,HourlyPrecipIn,Conditions,Clouds,dailyrainin,SoftwareType,DateUTC
2013-02-25 00:00:00,40.6,18.8,27.90,SSE,158,0.0,0.0,41,0.00,,---,0.00,VWS V14.01,2013-02-25 05:00:00,
2013-02-25 00:05:00,40.6,18.8,27.90,SSE,158,0.0,0.0,41,0.00,,---,0.00,VWS V14.01,2013-02-25 05:05:00,
2013-02-25 00:11:00,40.5,18.6,27.90,SSE,158,0.0,0.0,41,0.00,,---,0.00,VWS V14.01,2013-02-25 05:11:00,
2013-02-25 00:16:00,40.5,18.6,27.90,SSE,158,0.0,0.0,41,0.00,,---,0.00,VWS V14.01,2013-02-25 05:16:00,
2013-02-25 00:21:00,40.6,18.8,27.88,SSE,158,0.0,0.0,41,0.00,,---,0.00,VWS V14.01,2013-02-25 05:21:00,
2013-02-25 00:26:00,40.5,18.6,27.88,SSE,158,0.0,0.0,41,0.00,,---,0.00,VWS V14.01,2013-02-25 05:26:00,
2013-02-25 00:31:00,40.3,18.5,27.88,SSE,158,0.0,0.0,41,0.00,,---,0.00,VWS V14.01,2013-02-25 05:31:00,
2013-02-25 00:36:00,40.3,18.5,27.88,SSE,158,0.0,0.0,41,0.00,,---,0.00,VWS V14.01,2013-02-25 05:36:00,
2013-02-25 00:41:00,40.3,18.5,27.88,SSE,158,0.0,0.0,41,0.00,,---,0.00,VWS V14.01,2013-02-25 05:41:00,
2013-02-25 00:46:00,40.3,18.5,27.88,SSE,158,0.0,0.0,41,0.00,,---,0.00,VWS V14.01,2013-02-25 05:46:00,
2013-02-25 00:51:00,40.1,18.3,27.88,SSE,158,0.0,0.0,41,0.00,,---,0.00,VWS V14.01,2013-02-25 05:51:00,
2013-02-25 00:56:00,40.1,18.3,27.88,SSE,158,0.0,0.0,41,0.00,,---,0.00,VWS V14.01,2013-02-25 05:56:00,
2013-02-25 01:01:00,39.9,18.1,27.88,SSE,158,0.0,0.0,41,0.00,,---,0.00,VWS V14.01,2013-02-25 06:01:00,
2013-02-25 01:06:00,39.9,18.1,27.88,SSE,158,0.0,0.0,41,0.00,,---,0.00,VWS V14.01,2013-02-25 06:06:00,
2013-02-25 01:11:00,39.7,18.0,27.88,SSE,158,0.0,0.0,41,0.00,,---,0.00,VWS V14.01,2013-02-25 06:11:00,
2013-02-25 01:17:00,39.7,18.0,27.88,SSE,158,0.0,0.0,41,0.00,,---,0.00,VWS V14.01,2013-02-25 06:17:00,
2013-02-25 01:22:00,39.7,18.0,27.88,SSE,158,0.0,0.0,41,0.00,,---,0.00,VWS V14.01,2013-02-25 06:22:00,
2013-02-25 01:27:00,39.7,18.0,27.88,SSE,158,0.0,0.0,41,0.00,,---,0.00,VWS V14.01,2013-02-25 06:27:00,
2013-02-25 01:32:00,39.9,18.1,27.88,SSE,158,0.0,0.0,41,0.00,,---,0.00,VWS V14.01,2013-02-25 06:32:00,
2013-02-25 01:37:00,39.9,18.1,27.88,SSE,158,0.0,0.0,41,0.00,,---,0.00,VWS V14.01,2013-02-25 06:37:00,
2013-02-25 01:42:00,39.9,18.1,27.88,SSE,158,0.0,0.0,41,0.00,,---,0.00,VWS V14.01,2013-02-25 06:42:00,
2013-02-25 01:47:00,39.9,18.1,27.85,SSE,158,0.0,0.0,41,0.00,,---,0.00,VWS V14.01,2013-02-25 06:47:00,
2013-02-25 01:52:00,39.9,18.1,27.85,SSE,158,0.0,0.0,41,0.00,,---,0.00,VWS V14.01,2013-02-25 06:52:00,
2013-02-25 01:57:00,39.7,18.0,27.85,SSE,158,0.0,0.0,41,0.00,,---,0.00,VWS V14.01,2013-02-25 06:57:00,
2013-02-25 02:02:00,39.6,17.8,27.85,SSE,158,0.0,0.0,41,0.00,,---,0.00,VWS V14.01,2013-02-25 07:02:00,
2013-02-25 02:07:00,39.6,17.8,27.85,SSE,158,0.0,0.0,41,0.00,,---,0.00,VWS V14.01,2013-02-25 07:07:00,
2013-02-25 02:12:00,39.4,17.7,27.85,SSE,158,0.0,0.0,41,0.00,,---,0.00,VWS V14.01,2013-02-25 07:12:00,
2013-02-25 02:18:00,39.6,17.8,27.88,SSE,158,0.0,0.0,41,0.00,,---,0.00,VWS V14.01,2013-02-25 07:18:00,
2013-02-25 02:23:00,39.6,17.8,27.88,SSE,158,0.0,0.0,41,0.00,,---,0.00,VWS V14.01,2013-02-25 07:23:00,
2013-02-25 02:28:00,39.4,17.7,27.88,SSE,158,0.0,0.0,41,0.00,,---,0.00,VWS V14.01,2013-02-25 07:28:00,
2013-02-25 02:33:00,39.4,17.7,27.85,SSE,158,0.0,0.0,41,0.00,,---,0.00,VWS V14.01,2013-02-25 07:33:00,
2013-02-25 02:38:00,39.4,17.7,27.85,SSE,158,0.0,0.0,41,0.00,,---,0.00,VWS V14.01,2013-02-25 07:38:00,
2013-02-25 02:43:00,39.4,17.7,27.85,SSE,158,0.0,0.0,41,0.00,,---,0.00,VWS V14.01,2013-02-25 07:43:00,
2013-02-25 02:48:00,39.4,17.7,27.85,SSE,158,0.0,0.0,41,0.00,,---,0.00,VWS V14.01,2013-02-25 07:48:00,
2013-02-25 02:53:00,39.2,17.5,27.85,SSE,158,0.0,0.0,41,0.00,,---,0.00,VWS V14.01,2013-02-25 07:53:00,
2013-02-25 02:58:00,39.2,17.5,27.85,SSE,158,0.0,0.0,41,0.00,,---,0.00,VWS V14.01,2013-02-25 07:58:00,
2013-02-25 03:03:00,39.2,17.5,27.85,SSE,158,0.0,0.0,41,0.00,,---,0.00,VWS V14.01,2013-02-25 08:03:00,
2013-02-25 03:08:00,39.2,17.5,27.85,SSE,158,0.0,0.0,41,0.00,,---,0.00,VWS V14.01,2013-02-25 08:08:00,
2013-02-25 03:13:00,39.2,17.5,27.85,SSE,158,0.0,0.0,41,0.00,,---,0.00,VWS V14.01,2013-02-25 08:13:00,
2013-02-25 03:18:00,39.2,17.5,27.85,SSE,158,0.0,0.0,41,0.00,,---,0.00,VWS V14.01,2013-02-25 08:18:00,
2013-02-25 03:23:00,39.0,17.9,27.85,SSE,158,0.0,0.0,42,0.00,,---,0.00,VWS V14.01,2013-02-25 08:23:00,
2013-02-25 03:28:00,39.0,17.9,27.85,SSE,158,0.0,0.0,42,0.00,,---,0.00,VWS V14.01,2013-02-25 08:28:00,
2013-02-25 03:33:00,39.2,17.5,27.85,SSE,158,0.0,0.0,41,0.00,,---,0.00,VWS V14.01,2013-02-25 08:33:00,
2013-02-25 03:38:00,39.2,17.5,27.85,SSE,158,0.0,0.0,41,0.00,,---,0.00,VWS V14.01,2013-02-25 08:38:00,
2013-02-25 03:43:00,39.2,18.0,27.85,SSE,158,0.0,0.0,42,0.00,,---,0.00,VWS V14.01,2013-02-25 08:43:00,
2013-02-25 03:48:00,39.0,17.9,27.85,SSE,158,0.0,0.0,42,0.00,,---,0.00,VWS V14.01,2013-02-25 08:48:00,
2013-02-25 03:53:00,38.8,17.7,27.85,SSE,158,0.0,0.0,42,0.00,,---,0.00,VWS V14.01,2013-02-25 08:53:00,
2013-02-25 03:59:00,38.8,17.7,27.85,SSE,158,0.0,0.0,42,0.00,,---,0.00,VWS V14.01,2013-02-25 08:59:00,
2013-02-25 04:04:00,38.8,17.7,27.85,SSE,158,0.0,0.0,42,0.00,,---,0.00,VWS V14.01,2013-02-25 09:04:00,
2013-02-25 04:09:00,38.8,17.7,27.85,SSE,158,0.0,0.0,42,0.00,,---,0.00,VWS V14.01,2013-02-25 09:09:00,
2013-02-25 04:14:00,38.8,17.7,27.85,SSE,158,0.0,0.0,42,0.00,,---,0.00,VWS V14.01,2013-02-25 09:14:00,
2013-02-25 04:19:00,38.8,17.7,27.85,SSE,158,0.0,0.0,42,0.00,,---,0.00,VWS V14.01,2013-02-25 09:19:00,
2013-02-25 04:24:00,38.7,17.6,27.85,SSE,158,0.0,0.0,42,0.00,,---,0.00,VWS V14.01,2013-02-25 09:24:00,
2013-02-25 04:29:00,38.8,17.7,27.85,SSE,158,0.0,0.0,42,0.00,,---,0.00,VWS V14.01,2013-02-25 09:29:00,
2013-02-25 04:34:00,38.7,17.6,27.85,SSE,158,0.0,0.0,42,0.00,,---,0.00,VWS V14.01,2013-02-25 09:34:00,
2013-02-25 04:39:00,38.7,17.6,27.85,SSE,158,0.0,0.0,42,0.00,,---,0.00,VWS V14.01,2013-02-25 09:39:00,
2013-02-25 04:44:00,38.8,17.7,27.85,SSE,158,0.0,0.0,42,0.00,,---,0.00,VWS V14.01,2013-02-25 09:44:00,
2013-02-25 04:49:00,38.7,17.6,27.85,SSE,158,0.0,0.0,42,0.00,,---,0.00,VWS V14.01,2013-02-25 09:49:00,
2013-02-25 04:54:00,38.8,17.7,27.85,SSE,158,0.0,0.0,42,0.00,,---,0.00,VWS V14.01,2013-02-25 09:54:00,
2013-02-25 04:59:00,38.7,17.6,27.85,SSE,158,0.0,0.0,42,0.00,,---,0.00,VWS V14.01,2013-02-25 09:59:00,
2013-02-25 05:04:00,38.7,17.6,27.85,SSE,158,0.0,0.0,42,0.00,,---,0.00,VWS V14.01,2013-02-25 10:04:00,
2013-02-25 05:10:00,38.8,17.7,27.85,SSE,158,0.0,0.0,42,0.00,,---,0.00,VWS V14.01,2013-02-25 10:10:00,
2013-02-25 05:15:00,38.8,17.7,27.85,SSE,158,0.0,0.0,42,0.00,,---,0.00,VWS V14.01,2013-02-25 10:15:00,
2013-02-25 05:20:00,38.8,17.7,27.85,SSE,158,0.0,0.0,42,0.00,,---,0.00,VWS V14.01,2013-02-25 10:20:00,
2013-02-25 05:25:00,38.7,17.6,27.85,SSE,158,0.0,0.0,42,0.00,,---,0.00,VWS V14.01,2013-02-25 10:25:00,
2013-02-25 05:30:00,38.7,17.6,27.85,SSE,158,0.0,0.0,42,0.00,,---,0.00,VWS V14.01,2013-02-25 10:30:00,
2013-02-25 05:35:00,38.7,17.6,27.82,SSE,158,0.0,0.0,42,0.00,,---,0.00,VWS V14.01,2013-02-25 10:35:00,
2013-02-25 05:40:00,38.7,18.1,27.82,SSE,158,0.0,0.0,43,0.00,,---,0.00,VWS V14.01,2013-02-25 10:40:00,
2013-02-25 05:45:00,38.7,17.6,27.82,SSE,158,0.0,0.0,42,0.00,,---,0.00,VWS V14.01,2013-02-25 10:45:00,
2013-02-25 05:50:00,38.7,17.6,27.85,SSE,158,0.0,0.0,42,0.00,,---,0.00,VWS V14.01,2013-02-25 10:50:00,
2013-02-25 05:55:00,38.7,17.6,27.85,SSE,158,0.0,0.0,42,0.00,,---,0.00,VWS V14.01,2013-02-25 10:55:00,
2013-02-25 06:00:00,38.7,17.6,27.85,SSE,158,0.0,0.0,42,0.00,,---,0.00,VWS V14.01,2013-02-25 11:00:00,
2013-02-25 06:05:00,38.7,17.6,27.85,SSE,158,0.0,0.0,42,0.00,,---,0.00,VWS V14.01,2013-02-25 11:05:00,
2013-02-25 06:10:00,38.8,17.7,27.85,SSE,158,0.0,0.0,42,0.00,,---,0.00,VWS V14.01,2013-02-25 11:10:00,
2013-02-25 06:15:00,38.7,17.6,27.85,SSE,158,0.0,0.0,42,0.00,,---,0.00,VWS V14.01,2013-02-25 11:15:00,
2013-02-25 06:20:00,38.7,17.6,27.85,SSE,158,0.0,0.0,42,0.00,,---,0.00,VWS V14.01,2013-02-25 11:20:00,
2013-02-25 06:25:00,38.7,17.6,27.85,SSE,158,0.0,0.0,42,0.00,,---,0.00,VWS V14.01,2013-02-25 11:25:00,
2013-02-25 06:31:00,38.7,18.1,27.85,SSE,158,0.0,0.0,43,0.00,,---,0.00,VWS V14.01,2013-02-25 11:31:00,
2013-02-25 06:36:00,38.7,17.6,27.85,SSE,158,0.0,0.0,42,0.00,,---,0.00,VWS V14.01,2013-02-25 11:36:00,
2013-02-25 06:41:00,38.5,17.4,27.85,SSE,158,0.0,0.0,42,0.00,,---,0.00,VWS V14.01,2013-02-25 11:41:00,
2013-02-25 06:46:00,38.5,17.4,27.85,SSE,158,0.0,0.0,42,0.00,,---,0.00,VWS V14.01,2013-02-25 11:46:00,
2013-02-25 06:51:00,38.5,17.9,27.85,SSE,158,0.0,0.0,43,0.00,,---,0.00,VWS V14.01,2013-02-25 11:51:00,
2013-02-25 06:56:00,38.5,17.4,27.85,SSE,158,0.0,0.0,42,0.00,,---,0.00,VWS V14.01,2013-02-25 11:56:00,
2013-02-25 07:01:00,38.3,17.8,27.85,SSE,158,0.0,0.0,43,0.00,,---,0.00,VWS V14.01,2013-02-25 12:01:00,
2013-02-25 07:06:00,38.1,17.6,27.85,SSE,158,0.0,0.0,43,0.00,,---,0.00,VWS V14.01,2013-02-25 12:06:00,
2013-02-25 07:11:00,38.1,17.6,27.85,SSE,158,0.0,0.0,43,0.00,,---,0.00,VWS V14.01,2013-02-25 12:11:00,
2013-02-25 07:16:00,38.3,17.8,27.85,SSE,158,0.0,0.0,43,0.00,,---,0.00,VWS V14.01,2013-02-25 12:16:00,
2013-02-25 07:21:00,38.3,17.8,27.88,SSE,158,0.0,0.0,43,0.00,,---,0.00,VWS V14.01,2013-02-25 12:21:00,
2013-02-25 07:26:00,38.5,17.9,27.88,SSE,158,0.0,0.0,43,0.00,,---,0.00,VWS V14.01,2013-02-25 12:26:00,
2013-02-25 07:31:00,38.5,17.9,27.88,SE,135,0.0,0.9,43,0.00,,---,0.00,VWS V14.01,2013-02-25 12:31:00,
2013-02-25 07:36:00,38.5,17.9,27.88,SE,135,5.4,5.4,43,0.00,,---,0.00,VWS V14.01,2013-02-25 12:36:00,
2013-02-25 07:41:00,38.7,18.1,27.88,SSE,158,1.1,1.1,43,0.00,,---,0.00,VWS V14.01,2013-02-25 12:41:00,
2013-02-25 07:47:00,38.7,18.1,27.88,WSW,248,2.5,2.5,43,0.00,,---,0.00,VWS V14.01,2013-02-25 12:47:00,
2013-02-25 07:52:00,38.7,18.1,27.88,East,90,2.0,2.9,43,0.00,,---,0.00,VWS V14.01,2013-02-25 12:52:00,
2013-02-25 07:57:00,38.8,18.3,27.88,SSW,202,1.6,5.6,43,0.00,,---,0.00,VWS V14.01,2013-02-25 12:57:00,
2013-02-25 08:02:00,38.8,18.3,27.88,North,0,4.7,4.7,43,0.00,,---,0.00,VWS V14.01,2013-02-25 13:02:00,
2013-02-25 08:07:00,38.8,18.3,27.88,NW,315,0.0,2.9,43,0.00,,---,0.00,VWS V14.01,2013-02-25 13:07:00,
2013-02-25 08:12:00,38.8,18.3,27.88,ENE,68,1.6,1.6,43,0.00,,---,0.00,VWS V14.01,2013-02-25 13:12:00,
2013-02-25 08:17:00,38.7,18.1,27.88,East,90,0.0,0.0,43,0.00,,---,0.00,VWS V14.01,2013-02-25 13:17:00,
2013-02-25 08:22:00,38.7,18.1,27.88,NW,315,2.5,2.5,43,0.00,,---,0.00,VWS V14.01,2013-02-25 13:22:00,
2013-02-25 08:27:00,38.7,18.1,27.88,NW,315,4.3,4.3,43,0.00,,---,0.00,VWS V14.01,2013-02-25 13:27:00,
2013-02-25 08:32:00,38.7,18.1,27.88,WNW,292,0.0,0.0,43,0.00,,---,0.00,VWS V14.01,2013-02-25 13:32:00,
2013-02-25 08:37:00,38.7,18.1,27.88,SW,225,1.6,1.6,43,0.00,,---,0.00,VWS V14.01,2013-02-25 13:37:00,
2013-02-25 08:42:00,38.7,18.1,27.88,WNW,292,0.0,0.9,43,0.00,,---,0.00,VWS V14.01,2013-02-25 13:42:00,
2013-02-25 08:47:00,38.7,18.1,27.88,WNW,292,4.9,4.9,43,0.00,,---,0.00,VWS V14.01,2013-02-25 13:47:00,
2013-02-25 08:52:00,38.7,18.1,27.88,East,90,2.2,2.2,43,0.00,,---,0.00,VWS V14.01,2013-02-25 13:52:00,
2013-02-25 08:57:00,38.8,18.3,27.88,East,90,0.0,0.0,43,0.00,,---,0.00,VWS V14.01,2013-02-25 13:57:00,
2013-02-25 09:02:00,39.2,18.6,27.88,ESE,112,0.0,0.0,43,0.00,,---,0.00,VWS V14.01,2013-02-25 14:02:00,
2013-02-25 09:08:00,39.2,18.6,27.88,WNW,292,1.1,2.5,43,0.00,,---,0.00,VWS V14.01,2013-02-25 14:08:00,
2013-02-25 09:13:00,39.2,18.6,27.88,South,180,0.0,0.0,43,0.00,,---,0.00,VWS V14.01,2013-02-25 14:13:00,
2013-02-25 09:18:00,39.4,18.8,27.88,WNW,292,0.0,0.9,43,0.00,,---,0.00,VWS V14.01,2013-02-25 14:18:00,
2013-02-25 09:23:00,39.4,18.8,27.88,WSW,248,1.1,1.1,43,0.00,,---,0.00,VWS V14.01,2013-02-25 14:23:00,
2013-02-25 09:28:00,39.6,18.9,27.88,South,180,0.0,0.0,43,0.00,,---,0.00,VWS V14.01,2013-02-25 14:28:00,
2013-02-25 09:33:00,39.7,19.1,27.88,WNW,292,2.0,2.0,43,0.00,,---,0.00,VWS V14.01,2013-02-25 14:33:00,
2013-02-25 09:38:00,39.7,19.1,27.88,WSW,248,0.0,0.0,43,0.00,,---,0.00,VWS V14.01,2013-02-25 14:38:00,
2013-02-25 09:43:00,40.1,20.0,27.88,SE,135,0.0,0.0,44,0.00,,---,0.00,VWS V14.01,2013-02-25 14:43:00,
2013-02-25 09:48:00,40.3,20.1,27.88,WNW,292,0.0,1.3,44,0.00,,---,0.00,VWS V14.01,2013-02-25 14:48:00,
2013-02-25 09:53:00,40.3,20.1,27.88,WSW,248,1.1,2.2,44,0.00,,---,0.00,VWS V14.01,2013-02-25 14:53:00,
2013-02-25 09:58:00,40.6,20.5,27.88,NNE,22,2.2,2.2,44,0.00,,---,0.00,VWS V14.01,2013-02-25 14:58:00,
2013-02-25 10:03:00,41.2,20.4,27.88,WSW,248,2.5,2.5,43,0.00,,---,0.00,VWS V14.01,2013-02-25 15:03:00,
2013-02-25 10:08:00,41.5,20.7,27.88,SE,135,0.0,0.0,43,0.00,,---,0.00,VWS V14.01,2013-02-25 15:08:00,
2013-02-25 10:13:00,41.7,20.9,27.88,WNW,292,0.0,0.0,43,0.00,,---,0.00,VWS V14.01,2013-02-25 15:13:00,
2013-02-25 10:18:00,42.1,21.2,27.85,SE,135,0.0,0.0,43,0.00,,---,0.00,VWS V14.01,2013-02-25 15:18:00,
2013-02-25 10:23:00,42.6,21.7,27.85,North,0,1.1,2.0,43,0.00,,---,0.00,VWS V14.01,2013-02-25 15:23:00,
2013-02-25 10:28:00,43.0,21.5,27.85,WNW,292,2.0,2.0,42,0.00,,---,0.00,VWS V14.01,2013-02-25 15:28:00,
2013-02-25 10:33:00,43.7,22.1,27.85,NE,45,0.9,2.5,42,0.00,,---,0.00,VWS V14.01,2013-02-25 15:33:00,
2013-02-25 10:38:00,44.2,22.6,27.85,WSW,248,0.0,0.0,42,0.00,,---,0.00,VWS V14.01,2013-02-25 15:38:00,
2013-02-25 10:43:00,44.2,22.6,27.85,ENE,68,0.0,0.0,42,0.00,,---,0.00,VWS V14.01,2013-02-25 15:43:00,
2013-02-25 10:48:00,44.6,22.9,27.85,ENE,68,1.1,1.3,42,0.00,,---,0.00,VWS V14.01,2013-02-25 15:48:00,
2013-02-25 10:53:00,44.6,22.9,27.85,East,90,2.7,2.7,42,0.00,,---,0.00,VWS V14.01,2013-02-25 15:53:00,
2013-02-25 10:58:00,44.6,22.9,27.85,South,180,0.0,0.0,42,0.00,,---,0.00,VWS V14.01,2013-02-25 15:58:00,
2013-02-25 11:03:00,44.8,23.1,27.85,WNW,292,1.6,1.6,42,0.00,,---,0.00,VWS V14.01,2013-02-25 16:03:00,
2013-02-25 11:08:00,45.1,23.4,27.85,West,270,0.0,0.0,42,0.00,,---,0.00,VWS V14.01,2013-02-25 16:08:00,
2013-02-25 11:13:00,45.0,23.3,27.85,North,0,0.0,0.0,42,0.00,,---,0.00,VWS V14.01,2013-02-25 16:13:00,
2013-02-25 11:19:00,44.8,23.1,27.85,WNW,292,2.0,2.0,42,0.00,,---,0.00,VWS V14.01,2013-02-25 16:19:00,
2013-02-25 11:24:00,45.0,23.3,27.85,ENE,68,1.6,1.6,42,0.00,,---,0.00,VWS V14.01,2013-02-25 16:24:00,
2013-02-25 11:29:00,45.0,23.3,27.85,WNW,292,0.9,2.2,42,0.00,,---,0.00,VWS V14.01,2013-02-25 16:29:00,
2013-02-25 11:34:00,45.1,23.4,27.85,SE,135,0.0,3.1,42,0.00,,---,0.00,VWS V14.01,2013-02-25 16:34:00,
2013-02-25 11:39:00,45.7,23.9,27.85,ENE,68,2.0,2.0,42,0.00,,---,0.00,VWS V14.01,2013-02-25 16:39:00,
2013-02-25 11:44:00,46.8,24.3,27.85,WNW,292,1.3,3.1,41,0.00,,---,0.00,VWS V14.01,2013-02-25 16:44:00,
2013-02-25 11:49:00,47.3,24.8,27.85,WSW,248,2.2,4.9,41,0.00,,---,0.00,VWS V14.01,2013-02-25 16:49:00,
2013-02-25 11:54:00,48.7,25.5,27.85,SW,225,1.3,2.7,40,0.00,,---,0.00,VWS V14.01,2013-02-25 16:54:00,
2013-02-25 11:59:00,49.5,26.2,27.85,ENE,68,2.9,2.9,40,0.00,,---,0.00,VWS V14.01,2013-02-25 16:59:00,
2013-02-25 12:04:00,50.5,26.5,27.85,ENE,68,2.0,3.8,39,0.00,,---,0.00,VWS V14.01,2013-02-25 17:04:00,
2013-02-25 12:09:00,51.4,27.3,27.85,East,90,1.6,1.6,39,0.00,,---,0.00,VWS V14.01,2013-02-25 17:09:00,
2013-02-25 12:14:00,52.9,28.6,27.85,NW,315,2.5,2.5,39,0.00,,---,0.00,VWS V14.01,2013-02-25 17:14:00,
2013-02-25 12:19:00,52.9,28.0,27.85,ESE,112,1.1,1.1,38,0.00,,---,0.00,VWS V14.01,2013-02-25 17:19:00,
2013-02-25 12:24:00,54.3,29.3,27.85,SSE,158,2.5,2.9,38,0.00,,---,0.00,VWS V14.01,2013-02-25 17:24:00,
2013-02-25 12:29:00,54.3,28.6,27.85,ENE,68,2.5,3.8,37,0.00,,---,0.00,VWS V14.01,2013-02-25 17:29:00,
2013-02-25 12:34:00,55.4,29.6,27.85,SSE,158,2.5,2.5,37,0.00,,---,0.00,VWS V14.01,2013-02-25 17:34:00,
2013-02-25 12:39:00,54.9,29.1,27.85,WSW,248,1.3,3.4,37,0.00,,---,0.00,VWS V14.01,2013-02-25 17:39:00,
2013-02-25 12:44:00,54.5,28.8,27.85,East,90,3.4,3.4,37,0.00,,---,0.00,VWS V14.01,2013-02-25 17:44:00,
2013-02-25 12:49:00,54.9,29.1,27.82,SE,135,1.3,1.3,37,0.00,,---,0.00,VWS V14.01,2013-02-25 17:49:00,
2013-02-25 12:54:00,54.7,28.9,27.82,ESE,112,3.4,3.4,37,0.00,,---,0.00,VWS V14.01,2013-02-25 17:54:00,
2013-02-25 12:59:00,54.0,28.3,27.82,ESE,112,3.6,3.6,37,0.00,,---,0.00,VWS V14.01,2013-02-25 17:59:00,
2013-02-25 13:04:00,53.2,27.7,27.82,ESE,112,2.2,2.2,37,0.00,,---,0.00,VWS V14.01,2013-02-25 18:04:00,
2013-02-25 13:09:00,53.2,27.7,27.82,SE,135,2.9,2.9,37,0.00,,---,0.00,VWS V14.01,2013-02-25 18:09:00,
2013-02-25 13:14:00,52.9,27.3,27.82,NW,315,1.3,1.3,37,0.00,,---,0.00,VWS V14.01,2013-02-25 18:14:00,
2013-02-25 13:19:00,53.1,27.5,27.82,ESE,112,0.9,1.3,37,0.00,,---,0.00,VWS V14.01,2013-02-25 18:19:00,
2013-02-25 13:24:00,52.7,27.8,27.82,East,90,2.9,3.4,38,0.00,,---,0.00,VWS V14.01,2013-02-25 18:24:00,
2013-02-25 13:29:00,52.0,27.2,27.82,SSW,202,2.2,2.2,38,0.00,,---,0.00,VWS V14.01,2013-02-25 18:29:00,
2013-02-25 13:34:00,52.0,27.2,27.82,NNW,338,3.4,3.4,38,0.00,,---,0.00,VWS V14.01,2013-02-25 18:34:00,
2013-02-25 13:40:00,51.4,26.7,27.82,ESE,112,0.0,0.0,38,0.00,,---,0.00,VWS V14.01,2013-02-25 18:40:00,
2013-02-25 13:45:00,51.1,26.4,27.82,SE,135,1.3,2.2,38,0.00,,---,0.00,VWS V14.01,2013-02-25 18:45:00,
2013-02-25 13:50:00,50.9,26.2,27.82,SE,135,1.3,1.3,38,0.00,,---,0.00,VWS V14.01,2013-02-25 18:50:00,
2013-02-25 13:55:00,50.7,26.0,27.82,ESE,112,1.6,4.0,38,0.00,,---,0.00,VWS V14.01,2013-02-25 18:55:00,
2013-02-25 14:00:00,50.5,25.9,27.82,ENE,68,4.3,4.3,38,0.00,,---,0.00,VWS V14.01,2013-02-25 19:00:00,
2013-02-25 14:05:00,50.5,25.9,27.82,SSE,158,2.5,2.5,38,0.00,,---,0.00,VWS V14.01,2013-02-25 19:05:00,
2013-02-25 14:10:00,50.9,26.8,27.82,SE,135,2.0,2.0,39,0.00,,---,0.00,VWS V14.01,2013-02-25 19:10:00,
2013-02-25 14:15:00,50.5,26.5,27.82,ESE,112,2.0,2.0,39,0.00,,---,0.00,VWS V14.01,2013-02-25 19:15:00,
2013-02-25 14:20:00,50.4,26.4,27.82,ESE,112,2.7,2.7,39,0.00,,---,0.00,VWS V14.01,2013-02-25 19:20:00,
2013-02-25 14:25:00,49.8,25.9,27.82,SSW,202,0.0,3.8,39,0.00,,---,0.00,VWS V14.01,2013-02-25 19:25:00,
2013-02-25 14:30:00,50.2,26.2,27.82,ESE,112,1.1,2.7,39,0.00,,---,0.00,VWS V14.01,2013-02-25 19:30:00,
2013-02-25 14:35:00,50.2,26.2,27.79,East,90,2.7,2.7,39,0.00,,---,0.00,VWS V14.01,2013-02-25 19:35:00,
2013-02-25 14:40:00,50.5,27.1,27.79,SE,135,2.2,2.2,40,0.00,,---,0.00,VWS V14.01,2013-02-25 19:40:00,
2013-02-25 14:45:00,50.5,26.5,27.79,West,270,3.4,3.4,39,0.00,,---,0.00,VWS V14.01,2013-02-25 19:45:00,
2013-02-25 14:50:00,50.2,26.2,27.79,ESE,112,4.0,4.0,39,0.00,,---,0.00,VWS V14.01,2013-02-25 19:50:00,
2013-02-25 14:55:00,49.8,26.5,27.79,East,90,4.0,4.0,40,0.00,,---,0.00,VWS V14.01,2013-02-25 19:55:00,
2013-02-25 15:00:00,49.6,26.3,27.79,ENE,68,0.0,0.0,40,0.00,,---,0.00,VWS V14.01,2013-02-25 20:00:00,
2013-02-25 15:06:00,49.1,25.8,27.79,ENE,68,0.0,0.0,40,0.00,,---,0.00,VWS V14.01,2013-02-25 20:06:00,
2013-02-25 15:11:00,48.9,25.7,27.79,NW,315,0.0,0.0,40,0.00,,---,0.00,VWS V14.01,2013-02-25 20:11:00,
2013-02-25 15:16:00,48.6,26.0,27.79,SSE,158,2.0,3.1,41,0.00,,---,0.00,VWS V14.01,2013-02-25 20:16:00,
2013-02-25 15:21:00,48.4,25.8,27.79,ENE,68,0.0,2.0,41,0.00,,---,0.00,VWS V14.01,2013-02-25 20:21:00,
2013-02-25 15:26:00,48.6,26.0,27.79,ENE,68,0.0,0.0,41,0.00,,---,0.00,VWS V14.01,2013-02-25 20:26:00,
2013-02-25 15:31:00,48.6,26.0,27.79,ENE,68,0.0,0.0,41,0.00,,---,0.00,VWS V14.01,2013-02-25 20:31:00,
2013-02-25 15:36:00,48.4,25.8,27.79,SE,135,2.9,2.9,41,0.00,,---,0.00,VWS V14.01,2013-02-25 20:36:00,
2013-02-25 15:41:00,48.4,25.8,27.79,NNW,338,2.5,2.5,41,0.00,,---,0.00,VWS V14.01,2013-02-25 20:41:00,
2013-02-25 15:46:00,48.6,26.5,27.79,NNW,338,2.5,2.5,42,0.00,,---,0.00,VWS V14.01,2013-02-25 20:46:00,
2013-02-25 15:51:00,48.7,26.7,27.79,ENE,68,3.1,3.1,42,0.00,,---,0.00,VWS V14.01,2013-02-25 20:51:00,
2013-02-25 15:56:00,48.6,26.5,27.79,NW,315,2.2,2.2,42,0.00,,---,0.00,VWS V14.01,2013-02-25 20:56:00,
2013-02-25 16:01:00,48.7,26.7,27.79,NW,315,2.2,2.2,42,0.00,,---,0.00,VWS V14.01,2013-02-25 21:01:00,
2013-02-25 16:06:00,49.6,27.5,27.79,East,90,0.9,0.9,42,0.00,,---,0.00,VWS V14.01,2013-02-25 21:06:00,
2013-02-25 16:11:00,50.2,27.4,27.79,WNW,292,2.7,2.7,41,0.00,,---,0.00,VWS V14.01,2013-02-25 21:11:00,
2013-02-25 16:16:00,50.5,27.7,27.79,WNW,292,2.7,2.7,41,0.00,,---,0.00,VWS V14.01,2013-02-25 21:16:00,
2013-02-25 16:21:00,50.9,28.1,27.76,WNW,292,2.7,2.7,41,0.00,,---,0.00,VWS V14.01,2013-02-25 21:21:00,
2013-02-25 16:26:00,50.7,27.9,27.76,WNW,292,2.7,2.7,41,0.00,,---,0.00,VWS V14.01,2013-02-25 21:26:00,
2013-02-25 16:31:00,50.5,27.7,27.76,ESE,112,2.7,2.7,41,0.00,,---,0.00,VWS V14.01,2013-02-25 21:31:00,
2013-02-25 16:36:00,50.5,27.7,27.76,ESE,112,3.8,3.8,41,0.00,,---,0.00,VWS V14.01,2013-02-25 21:36:00,
2013-02-25 16:42:00,50.7,27.9,27.76,North,0,0.9,0.9,41,0.00,,---,0.00,VWS V14.01,2013-02-25 21:42:00,
2013-02-25 16:47:00,50.5,27.7,27.76,North,0,0.9,0.9,41,0.00,,---,0.00,VWS V14.01,2013-02-25 21:47:00,
2013-02-25 16:52:00,50.4,27.6,27.76,North,0,0.9,0.9,41,0.00,,---,0.00,VWS V14.01,2013-02-25 21:52:00,
2013-02-25 16:57:00,50.2,27.4,27.76,North,0,0.9,0.9,41,0.00,,---,0.00,VWS V14.01,2013-02-25 21:57:00,
2013-02-25 17:02:00,50.0,27.2,27.76,North,0,0.9,0.9,41,0.00,,---,0.00,VWS V14.01,2013-02-25 22:02:00,
2013-02-25 17:07:00,50.0,27.2,27.76,North,0,0.9,0.9,41,0.00,,---,0.00,VWS V14.01,2013-02-25 22:07:00,
2013-02-25 17:12:00,50.5,27.7,27.76,North,0,0.9,0.9,41,0.00,,---,0.00,VWS V14.01,2013-02-25 22:12:00,
2013-02-25 17:17:00,50.5,27.7,27.73,North,0,0.9,0.9,41,0.00,,---,0.00,VWS V14.01,2013-02-25 22:17:00,
2013-02-25 17:22:00,50.5,27.7,27.73,North,0,0.9,0.9,41,0.00,,---,0.00,VWS V14.01,2013-02-25 22:22:00,
2013-02-25 17:27:00,50.7,27.9,27.73,North,0,0.9,0.9,41,0.00,,---,0.00,VWS V14.01,2013-02-25 22:27:00,
2013-02-25 17:32:00,50.7,27.9,27.73,North,0,0.9,0.9,41,0.00,,---,0.00,VWS V14.01,2013-02-25 22:32:00,
2013-02-25 17:37:00,50.5,27.7,27.73,North,0,0.9,0.9,41,0.00,,---,0.00,VWS V14.01,2013-02-25 22:37:00,
2013-02-25 17:42:00,50.0,27.2,27.73,North,0,0.9,0.9,41,0.00,,---,0.00,VWS V14.01,2013-02-25 22:42:00,
2013-02-25 17:47:00,49.6,27.5,27.73,North,0,0.9,0.9,42,0.00,,---,0.00,VWS V14.01,2013-02-25 22:47:00,
2013-02-25 17:52:00,49.3,27.2,27.73,North,0,0.9,0.9,42,0.00,,---,0.00,VWS V14.01,2013-02-25 22:52:00,
2013-02-25 17:57:00,49.1,27.6,27.73,North,0,0.9,0.9,43,0.00,,---,0.00,VWS V14.01,2013-02-25 22:57:00,
2013-02-25 18:02:00,48.9,27.4,27.73,North,0,0.9,0.9,43,0.00,,---,0.00,VWS V14.01,2013-02-25 23:02:00,
2013-02-25 18:07:00,48.7,27.3,27.73,North,0,0.9,0.9,43,0.00,,---,0.00,VWS V14.01,2013-02-25 23:07:00,
2013-02-25 18:12:00,48.6,27.1,27.73,North,0,0.9,0.9,43,0.00,,---,0.00,VWS V14.01,2013-02-25 23:12:00,
2013-02-25 18:17:00,48.6,27.6,27.73,North,0,0.9,0.9,44,0.00,,---,0.00,VWS V14.01,2013-02-25 23:17:00,
2013-02-25 18:23:00,48.4,27.5,27.73,North,0,0.9,0.9,44,0.00,,---,0.00,VWS V14.01,2013-02-25 23:23:00,
2013-02-25 18:27:00,48.4,27.5,27.73,North,0,0.9,0.9,44,0.00,,---,0.00,VWS V14.01,2013-02-25 23:27:00,
2013-02-25 18:33:00,48.2,27.3,27.70,North,0,0.9,0.9,44,0.00,,---,0.00,VWS V14.01,2013-02-25 23:33:00,
2013-02-25 18:38:00,48.4,27.5,27.70,North,0,0.9,0.9,44,0.00,,---,0.00,VWS V14.01,2013-02-25 23:38:00,
2013-02-25 18:43:00,48.4,28.0,27.70,North,0,0.9,0.9,45,0.00,,---,0.00,VWS V14.01,2013-02-25 23:43:00,
2013-02-25 18:48:00,48.4,28.0,27.70,North,0,0.9,0.9,45,0.00,,---,0.00,VWS V14.01,2013-02-25 23:48:00,
2013-02-25 18:53:00,48.4,28.0,27.70,North,0,0.9,0.9,45,0.00,,---,0.00,VWS V14.01,2013-02-25 23:53:00,
2013-02-25 18:58:00,48.6,28.2,27.70,North,0,0.9,0.9,45,0.00,,---,0.00,VWS V14.01,2013-02-25 23:58:00,
2013-02-25 19:03:00,48.6,28.2,27.73,North,0,0.9,0.9,45,0.00,,---,0.00,VWS V14.01,2013-02-26 00:03:00,
2013-02-25 19:08:00,48.6,28.7,27.73,North,0,0.9,0.9,46,0.00,,---,0.00,VWS V14.01,2013-02-26 00:08:00,
2013-02-25 19:13:00,48.7,29.4,27.73,North,0,0.9,0.9,47,0.00,,---,0.00,VWS V14.01,2013-02-26 00:13:00,
2013-02-25 19:18:00,48.9,29.6,27.73,North,0,0.9,0.9,47,0.00,,---,0.00,VWS V14.01,2013-02-26 00:18:00,
2013-02-25 19:23:00,48.9,29.6,27.73,North,0,0.9,0.9,47,0.00,,---,0.00,VWS V14.01,2013-02-26 00:23:00,
2013-02-25 19:28:00,49.1,30.3,27.73,North,0,0.9,0.9,48,0.00,,---,0.00,VWS V14.01,2013-02-26 00:28:00,
2013-02-25 19:33:00,49.3,30.4,27.73,North,0,0.9,0.9,48,0.00,,---,0.00,VWS V14.01,2013-02-26 00:33:00,
2013-02-25 19:39:00,49.3,30.4,27.73,North,0,0.9,0.9,48,0.00,,---,0.00,VWS V14.01,2013-02-26 00:39:00,
2013-02-25 19:44:00,49.3,31.0,27.73,North,0,0.9,0.9,49,0.00,,---,0.00,VWS V14.01,2013-02-26 00:44:00,
2013-02-25 19:49:00,49.1,30.8,27.73,North,0,0.9,0.9,49,0.00,,---,0.00,VWS V14.01,2013-02-26 00:49:00,
2013-02-25 19:54:00,49.1,30.8,27.73,North,0,0.9,0.9,49,0.00,,---,0.00,VWS V14.01,2013-02-26 00:54:00,
2013-02-25 19:59:00,49.1,30.8,27.73,North,0,0.9,0.9,49,0.00,,---,0.00,VWS V14.01,2013-02-26 00:59:00,
2013-02-25 20:04:00,49.1,30.8,27.73,North,0,0.9,0.9,49,0.00,,---,0.00,VWS V14.01,2013-02-26 01:04:00,
2013-02-25 20:09:00,48.9,31.1,27.73,North,0,0.9,0.9,50,0.00,,---,0.00,VWS V14.01,2013-02-26 01:09:00,
2013-02-25 20:14:00,48.9,31.6,27.73,North,0,0.9,0.9,51,0.00,,---,0.00,VWS V14.01,2013-02-26 01:14:00,
2013-02-25 20:19:00,48.9,32.1,27.73,North,0,0.9,0.9,52,0.00,,---,0.00,VWS V14.01,2013-02-26 01:19:00,
2013-02-25 20:24:00,48.7,31.9,27.73,North,0,0.9,0.9,52,0.00,,---,0.00,VWS V14.01,2013-02-26 01:24:00,
2013-02-25 20:29:00,48.9,33.0,27.73,North,0,0.9,0.9,54,0.00,,---,0.00,VWS V14.01,2013-02-26 01:29:00,
2013-02-25 20:34:00,48.7,33.3,27.73,North,0,0.9,0.9,55,0.00,,---,0.00,VWS V14.01,2013-02-26 01:34:00,
2013-02-25 20:39:00,48.7,32.8,27.73,North,0,0.9,0.9,54,0.00,,---,0.00,VWS V14.01,2013-02-26 01:39:00,
2013-02-25 20:44:00,48.7,32.8,27.73,North,0,0.9,0.9,54,0.00,,---,0.00,VWS V14.01,2013-02-26 01:44:00,
2013-02-25 20:50:00,48.6,32.7,27.73,ESE,112,2.5,2.5,54,0.00,,---,0.00,VWS V14.01,2013-02-26 01:50:00,
2013-02-25 20:55:00,48.4,32.5,27.73,ESE,112,2.5,2.5,54,0.00,,---,0.00,VWS V14.01,2013-02-26 01:55:00,
2013-02-25 21:00:00,48.4,33.0,27.73,ESE,112,2.5,2.5,55,0.00,,---,0.00,VWS V14.01,2013-02-26 02:00:00,
2013-02-25 21:05:00,48.2,32.8,27.70,ESE,112,2.5,2.5,55,0.00,,---,0.00,VWS V14.01,2013-02-26 02:05:00,
2013-02-25 21:10:00,48.2,33.7,27.70,ESE,112,2.5,2.5,57,0.00,,---,0.00,VWS V14.01,2013-02-26 02:10:00,
2013-02-25 21:15:00,48.0,33.5,27.70,ESE,112,2.5,2.5,57,0.00,,---,0.00,VWS V14.01,2013-02-26 02:15:00,
2013-02-25 21:20:00,48.0,34.8,27.70,ESE,112,3.4,3.4,60,0.00,,---,0.00,VWS V14.01,2013-02-26 02:20:00,
2013-02-25 21:25:00,47.8,34.6,27.70,ESE,112,3.4,3.4,60,0.00,,---,0.00,VWS V14.01,2013-02-26 02:25:00,
2013-02-25 21:30:00,47.7,34.0,27.70,ESE,112,3.4,3.4,59,0.00,,---,0.00,VWS V14.01,2013-02-26 02:30:00,
2013-02-25 21:35:00,47.5,34.7,27.70,ESE,112,3.4,3.4,61,0.00,,---,0.00,VWS V14.01,2013-02-26 02:35:00,
2013-02-25 21:40:00,47.3,35.4,27.70,ESE,112,3.4,3.4,63,0.00,,---,0.00,VWS V14.01,2013-02-26 02:40:00,
2013-02-25 21:45:00,47.1,36.0,27.70,ESE,112,3.4,3.4,65,0.00,,---,0.00,VWS V14.01,2013-02-26 02:45:00,
2013-02-25 21:50:00,47.1,37.1,27.70,ESE,112,3.4,3.4,68,0.00,,---,0.00,VWS V14.01,2013-02-26 02:50:00,
2013-02-25 21:55:00,46.9,37.7,27.70,ESE,112,3.4,3.4,70,0.00,,---,0.00,VWS V14.01,2013-02-26 02:55:00,
2013-02-25 22:00:00,46.9,38.0,27.70,ESE,112,3.4,3.4,71,0.00,,---,0.00,VWS V14.01,2013-02-26 03:00:00,
2013-02-25 22:06:00,46.9,38.0,27.70,ESE,112,3.4,3.4,71,0.00,,---,0.00,VWS V14.01,2013-02-26 03:06:00,
2013-02-25 22:11:00,46.8,37.9,27.70,ESE,112,3.4,3.4,71,0.00,,---,0.00,VWS V14.01,2013-02-26 03:11:00,
2013-02-25 22:16:00,46.6,38.0,27.70,ESE,112,3.4,3.4,72,0.00,,---,0.00,VWS V14.01,2013-02-26 03:16:00,
2013-02-25 22:21:00,46.4,38.6,27.70,ESE,112,3.4,3.4,74,0.00,,---,0.00,VWS V14.01,2013-02-26 03:21:00,
2013-02-25 22:26:00,46.4,38.9,27.70,ESE,112,3.4,3.4,75,0.00,,---,0.00,VWS V14.01,2013-02-26 03:26:00,
2013-02-25 22:31:00,46.2,39.4,27.70,ESE,112,3.4,3.4,77,0.00,,---,0.00,VWS V14.01,2013-02-26 03:31:00,
2013-02-25 22:36:00,46.2,39.4,27.67,ESE,112,3.4,3.4,77,0.00,,---,0.00,VWS V14.01,2013-02-26 03:36:00,
2013-02-25 22:41:00,46.0,39.2,27.67,ESE,112,3.4,3.4,77,0.00,,---,0.00,VWS V14.01,2013-02-26 03:41:00,
2013-02-25 22:46:00,45.9,39.4,27.67,ESE,112,3.4,3.4,78,0.00,,---,0.00,VWS V14.01,2013-02-26 03:46:00,
2013-02-25 22:51:00,45.7,39.5,27.67,ESE,112,3.4,3.4,79,0.00,,---,0.00,VWS V14.01,2013-02-26 03:51:00,
2013-02-25 22:56:00,45.5,39.7,27.67,ESE,112,3.4,3.4,80,0.00,,---,0.00,VWS V14.01,2013-02-26 03:56:00,
2013-02-25 23:01:00,45.5,40.0,27.67,ESE,112,3.4,3.4,81,0.00,,---,0.00,VWS V14.01,2013-02-26 04:01:00,
2013-02-25 23:06:00,45.3,39.5,27.67,ESE,112,3.4,3.4,80,0.00,,---,0.00,VWS V14.01,2013-02-26 04:06:00,
2013-02-25 23:11:00,45.3,39.8,27.67,ESE,112,3.4,3.4,81,0.00,,---,0.00,VWS V14.01,2013-02-26 04:11:00,
2013-02-25 23:16:00,45.1,40.0,27.67,ESE,112,3.4,3.4,82,0.00,,---,0.00,VWS V14.01,2013-02-26 04:16:00,
2013-02-25 23:21:00,45.1,40.0,27.67,ESE,112,3.4,3.4,82,0.00,,---,0.00,VWS V14.01,2013-02-26 04:21:00,
2013-02-25 23:26:00,45.0,40.1,27.67,ESE,112,3.4,3.4,83,0.00,,---,0.00,VWS V14.01,2013-02-26 04:26:00,
2013-02-25 23:31:00,44.8,40.2,27.67,ESE,112,3.4,3.4,84,0.00,,---,0.00,VWS V14.01,2013-02-26 04:31:00,
2013-02-25 23:36:00,44.8,40.2,27.67,ESE,112,3.4,3.4,84,0.00,,---,0.00,VWS V14.01,2013-02-26 04:36:00,
2013-02-25 23:42:00,44.8,40.5,27.67,ESE,112,3.4,3.4,85,0.00,,---,0.00,VWS V14.01,2013-02-26 04:42:00,
2013-02-25 23:47:00,44.8,40.5,27.67,ESE,112,3.4,3.4,85,0.00,,---,0.00,VWS V14.01,2013-02-26 04:47:00,
2013-02-25 23:52:00,44.8,40.9,27.67,ESE,112,3.4,3.4,86,0.00,,---,0.00,VWS V14.01,2013-02-26 04:52:00,
2013-02-25 23:57:00,44.8,40.9,27.67,ESE,112,3.4,3.4,86,0.00,,---,0.00,VWS V14.01,2013-02-26 04:57:00,